Location: Dortmund
(51.5019°N, 7.6520°E)
Time: 19:30:26
(UTC+01:00)

Amateur Radio Satellites - All Passes

Search period start: 23 November 2017 19:00
Search period end: 24 November 2017 19:00
Location: Dortmund, 51.5019°N, 7.6520°E

Satellite Date Start Highest point End Downlink Frequencies (MHz)
Time Altitude Azimuth
CUBEBUG 2 23 Nov 19:03:39 19:08:11 76° 257° (WSW) 19:12:35 437.445
Oscar 11 23 Nov 19:07:34 19:11:13 28° 64° (ENE) 19:14:53 .
FO-29 23 Nov 19:15:44 19:19:59 15° 78° (ENE) 19:24:08 435.910
KKS-1 23 Nov 19:18:09 19:21:43 24° 300° (WNW) 19:25:16 437.445
CUTE 1.7 + AOD 2 23 Nov 19:18:24 19:22:15 34° 264° (W) 19:26:08 437.475
STARS 23 Nov 19:34:53 19:38:50 33° 296° (WNW) 19:42:44 437.465
ZACube-1 23 Nov 19:39:56 19:44:12 84° 75° (ENE) 19:48:26 437.345
AAUSAT CUBESAT 2 23 Nov 19:42:28 19:46:34 62° 258° (WSW) 19:50:43 437.432
SEEDS 23 Nov 19:44:07 19:47:48 30° 265° (W) 19:51:32 437.485
DELFI C3 23 Nov 19:50:53 19:53:36 18° 60° (ENE) 19:56:20 145.870
UWE-3 23 Nov 19:55:41 19:59:50 40° 262° (W) 20:03:54 435.000/436.395/437.385
STRAND 1 23 Nov 19:55:54 20:00:58 56° 101° (E) 20:05:59 437.568
nSIGHT-1 23 Nov 20:09:27 20:11:04 13° 140° (SE) 20:12:42 .
XW-2A 23 Nov 20:15:34 20:18:03 20° 267° (W) 20:20:34 145.665 - 145.685
NO-84 23 Nov 20:15:59 20:20:09 90° 244° (WSW) 20:24:27 435.350 FM
EO-88 23 Nov 20:17:26 20:19:40 16° 60° (ENE) 20:21:54 145.990 - 145.960
HO-68 23 Nov 20:20:23 20:25:37 21° 273° (W) 20:30:53 435.675
Max Valier Satellite 23 Nov 20:24:14 20:27:12 24° 65° (ENE) 20:30:10 145.860
AO-73 23 Nov 20:29:51 20:33:48 36° 263° (W) 20:37:42 145.935
Oscar 11 23 Nov 20:43:12 20:47:13 39° 263° (W) 20:51:18 .
CUBEBUG 2 23 Nov 20:44:44 20:45:31 10° 275° (W) 20:46:19 437.445
RS-15 23 Nov 20:47:49 21:00:10 68° 322° (NW) 21:12:16 29.354- 29.394
FO-29 23 Nov 20:58:48 21:06:39 62° 100° (E) 21:14:03 435.910
ISS 23 Nov 21:00:24 21:03:10 25° 147° (SSE) 21:05:55 437.550
SO-50 23 Nov 21:16:01 21:19:40 25° 117° (ESE) 21:23:22 436.795
ZACube-1 23 Nov 21:19:12 21:21:04 13° 273° (W) 21:22:55 437.345
O/OREOS (USA 219) 23 Nov 21:22:20 21:26:06 24° 45° (NE) 21:29:48 437.305
DELFI C3 23 Nov 21:24:01 21:27:57 59° 259° (W) 21:31:56 145.870
UNISAT 6 23 Nov 21:33:07 21:36:29 22° 92° (E) 21:39:50 437.425
STRAND 1 23 Nov 21:35:36 21:39:51 27° 301° (WNW) 21:44:04 437.568
TIGRISAT 23 Nov 21:36:44 21:40:06 22° 92° (E) 21:43:25 435.000
nSIGHT-1 23 Nov 21:43:37 21:46:45 49° 157° (SSE) 21:49:53 .
PRISM 23 Nov 21:46:05 21:47:04 11° 86° (E) 21:48:03 437.425
EO-88 23 Nov 21:49:21 21:52:55 56° 259° (W) 21:56:31 145.990 - 145.960
NO-84 23 Nov 21:53:38 21:57:12 26° 223° (SW) 22:00:47 435.350 FM
Max Valier Satellite 23 Nov 21:57:33 22:00:53 33° 263° (W) 22:04:15 145.860
LO-87 23 Nov 22:05:30 22:08:45 32° 68° (ENE) 22:12:00 145.935 - 145.965
ESTCUBE 1 23 Nov 22:18:50 22:23:01 40° 67° (ENE) 22:27:15 437.505/2401.250
VELOX 1 23 Nov 22:30:13 22:32:11 13° 53° (NE) 22:34:09 145.980
ISS 23 Nov 22:36:04 22:39:21 76° 165° (SSE) 22:42:37 437.550
FO-29 23 Nov 22:44:09 22:51:20 40° 301° (WNW) 22:58:14 435.910
SO-50 23 Nov 22:55:23 22:59:49 60° 317° (NW) 23:04:20 436.795
O/OREOS (USA 219) 23 Nov 23:01:22 23:05:54 62° 247° (WSW) 23:10:21 437.305
RS-15 23 Nov 23:03:29 23:15:07 44° 353° (N) 23:26:22 29.354- 29.394
SPROUT 23 Nov 23:04:36 23:08:22 31° 65° (ENE) 23:12:07 437.525
QB50P2 23 Nov 23:05:48 23:06:27 10° 85° (E) 23:07:07 145.880/145.840
UNISAT 6 23 Nov 23:09:20 23:13:27 46° 291° (WNW) 23:17:32 437.425
TIGRISAT 23 Nov 23:12:56 23:17:02 46° 291° (WNW) 23:21:06 435.000
PRISM 23 Nov 23:18:49 23:23:01 85° 104° (ESE) 23:27:11 437.425
nSIGHT-1 23 Nov 23:19:41 23:22:54 86° 358° (N) 23:26:08 .
LO-87 23 Nov 23:39:16 23:42:12 23° 266° (W) 23:45:09 145.935 - 145.965
PCSat 23 Nov 23:43:16 23:47:56 30° 112° (ESE) 23:52:37 145.827
UKube-1 23 Nov 23:44:06 23:45:29 11° 52° (NE) 23:46:50 .
DUCHIFAT 1 23 Nov 23:48:58 23:52:03 20° 91° (E) 23:55:07 145.980
AIST 2D 23 Nov 23:55:59 23:59:32 83° 103° (ESE) 00:03:05 435.315
ESTCUBE 1 23 Nov 23:56:03 23:59:56 29° 266° (W) 00:03:52 437.505/2401.250
EO-79 23 Nov 23:59:19 00:03:04 31° 95° (E) 00:06:48 145.935-145.965
NANOSAT C BR1 24 Nov 00:00:45 00:04:24 28° 95° (E) 00:08:03 145.865
VELOX 1 24 Nov 00:03:25 00:07:51 74° 73° (ENE) 00:12:20 145.980
ISS 24 Nov 00:12:33 00:15:50 90° 10° (N) 00:19:07 437.550
POLYITAN 1 24 Nov 00:15:16 00:19:17 43° 99° (E) 00:23:17 437.675
FO-29 24 Nov 00:30:49 00:34:20 14° 324° (NW) 00:37:49 435.910
BUGSAT 1 24 Nov 00:31:18 00:33:29 14° 89° (E) 00:35:40 437.445
SO-50 24 Nov 00:37:42 00:41:09 21° 340° (NNW) 00:44:39 436.795
50 SAT 24 Nov 00:37:53 00:40:56 39° 69° (ENE) 00:44:00 437.505
QB50P2 24 Nov 00:38:44 00:42:58 82° 104° (ESE) 00:47:10 145.880/145.840
SPROUT 24 Nov 00:40:15 00:44:11 35° 263° (W) 00:48:09 437.525
DX 1 24 Nov 00:40:22 00:44:33 46° 68° (ENE) 00:48:46 434.975-435.025
PRISM 24 Nov 00:55:24 00:57:42 15° 304° (NW) 01:00:00 437.425
nSIGHT-1 24 Nov 00:55:56 00:59:07 63° 198° (SSW) 01:02:18 .
Oscar 19 24 Nov 01:10:25 01:14:29 23° 91° (E) 01:18:33 437.125/150
UKube-1 24 Nov 01:16:23 01:20:41 66° 71° (ENE) 01:25:00 .
RS-15 24 Nov 01:18:43 01:30:37 54° 26° (NNE) 01:41:54 29.354- 29.394
DUCHIFAT 1 24 Nov 01:23:57 01:28:01 51° 290° (WNW) 01:32:03 145.980
PCSat 24 Nov 01:25:41 01:31:03 60° 313° (NW) 01:36:27 145.827
AIST 2D 24 Nov 01:31:02 01:32:08 11° 302° (WNW) 01:33:15 435.315
EO-79 24 Nov 01:35:04 01:38:51 33° 294° (WNW) 01:42:36 145.935-145.965
AO-91 24 Nov 01:35:31 01:39:44 33° 94° (E) 01:43:31 145.960
NANOSAT C BR1 24 Nov 01:36:21 01:40:11 35° 294° (WNW) 01:43:59 145.865
MOZHAYETS 4 24 Nov 01:37:18 01:41:02 25° 62° (ENE) 01:44:46
BEESAT 24 Nov 01:39:52 01:43:39 24° 59° (ENE) 01:47:27 436.000
VELOX 1 24 Nov 01:42:07 01:44:49 16° 272° (W) 01:47:33 145.980
ISS 24 Nov 01:49:05 01:52:11 39° 206° (SSW) 01:55:15 437.550
ITUPSAT 1 24 Nov 01:51:08 01:55:13 29° 61° (ENE) 01:59:18 437.325
POLYITAN 1 24 Nov 01:51:27 01:54:52 25° 298° (WNW) 01:58:16 437.675
Gurwin Techsat 1B 24 Nov 01:57:29 02:02:31 41° 97° (E) 02:07:30 435.225
CUBESAT XI-V 24 Nov 01:58:22 02:00:25 13° 52° (NE) 02:02:27 437.345
BEESAT 3 24 Nov 01:58:51 02:01:46 20° 115° (ESE) 02:04:41 437.485
BUGSAT 1 24 Nov 02:05:17 02:09:20 69° 288° (WNW) 02:13:19 437.445
50 SAT 24 Nov 02:11:07 02:13:12 16° 268° (W) 02:15:17 437.505
QB50P2 24 Nov 02:15:47 02:18:12 15° 303° (WNW) 02:20:36 145.880/145.840
DX 1 24 Nov 02:17:24 02:20:57 24° 267° (W) 02:24:32 434.975-435.025
SO-50 24 Nov 02:20:18 02:23:12 16° 5° (N) 02:26:06 436.795
nSIGHT-1 24 Nov 02:32:37 02:34:56 18° 216° (SW) 02:37:14 .
Oscar 19 24 Nov 02:49:07 02:54:14 62° 291° (WNW) 02:59:20 437.125/150
UKube-1 24 Nov 02:54:21 02:57:08 17° 270° (W) 02:59:58 .
M-CUBED/EXP-1 PRIME 24 Nov 02:57:00 03:00:58 29° 100° (E) 03:05:00 437.505
ITAMSAT 1 24 Nov 03:09:25 03:12:58 18° 89° (E) 03:16:30 435.822/435.867
KKS-1 24 Nov 03:09:44 03:12:24 16° 55° (NE) 03:15:02 437.445
PCSat 24 Nov 03:11:25 03:15:32 22° 337° (NNW) 03:19:42 145.827
AO-91 24 Nov 03:11:57 03:16:11 34° 296° (WNW) 03:20:01 145.960
AO-7 24 Nov 03:12:30 03:19:52 33° 94° (E) 03:27:11 .
MOZHAYETS 4 24 Nov 03:13:32 03:17:57 49° 261° (W) 03:22:24
BEESAT 2 24 Nov 03:16:21 03:19:58 33° 121° (ESE) 03:23:38 435.950
BEESAT 24 Nov 03:16:24 03:21:06 58° 258° (WSW) 03:25:50 436.000
STARS 24 Nov 03:27:37 03:28:34 11° 51° (NE) 03:29:30 437.465
ITUPSAT 1 24 Nov 03:28:15 03:32:51 46° 260° (W) 03:37:29 437.325
RS-15 24 Nov 03:32:01 03:43:57 76° 236° (SW) 03:55:14 29.354- 29.394
CUBESAT XI-V 24 Nov 03:32:23 03:36:58 71° 72° (ENE) 03:41:36 437.345
BEESAT 3 24 Nov 03:34:57 03:38:55 65° 316° (NW) 03:42:55 437.485
Gurwin Techsat 1B 24 Nov 03:37:34 03:42:27 37° 297° (WNW) 03:47:18 435.225
BUGSAT 1 24 Nov 03:43:13 03:43:54 10° 307° (NW) 03:44:36 437.445
SO-50 24 Nov 04:01:03 04:05:04 28° 29° (NNE) 04:09:06 436.795
YUBILEINY 24 Nov 04:11:35 04:18:09 24° 76° (ENE) 04:24:45 435.215
AO-85 24 Nov 04:12:00 04:15:43 42° 123° (ESE) 04:19:39 145.980
DOVE 4 24 Nov 04:15:15 04:18:21 16° 85° (E) 04:21:22 437.250
Oscar 19 24 Nov 04:30:14 04:32:36 13° 311° (NW) 04:34:58 437.125/150
M-CUBED/EXP-1 PRIME 24 Nov 04:31:08 04:35:27 46° 298° (WNW) 04:39:53 437.505
KKS-1 24 Nov 04:43:49 04:48:19 89° 254° (WSW) 04:52:51 437.445
ITAMSAT 1 24 Nov 04:47:49 04:53:04 79° 288° (WNW) 04:58:15 435.822/435.867
BEESAT 2 24 Nov 04:53:46 04:57:38 41° 321° (NW) 05:01:32 435.950
PCSat 24 Nov 04:57:47 05:00:59 16° 3° (N) 05:04:13 145.827
STARS 24 Nov 04:59:39 05:04:01 59° 70° (ENE) 05:08:23 437.465
AO-7 24 Nov 05:05:00 05:13:19 73° 296° (WNW) 05:21:38 .
CUBESAT XI-V 24 Nov 05:11:51 05:14:51 17° 272° (W) 05:17:53 437.345
BEESAT 3 24 Nov 05:14:17 05:17:10 19° 337° (NNW) 05:20:03 437.485
XW-2B 24 Nov 05:23:11 05:23:54 10° 86° (E) 05:24:38 145.730 - 145.750
FO-29 24 Nov 05:34:53 05:39:03 16° 40° (NE) 05:43:23 435.910
STRAND 1 24 Nov 05:39:16 05:43:25 25° 58° (ENE) 05:47:34 437.568
SO-50 24 Nov 05:41:21 05:45:59 78° 230° (SW) 05:50:41 436.795
RS-15 24 Nov 05:45:48 05:54:16 24° 261° (W) 06:02:30 29.354- 29.394
XW-2C 24 Nov 05:47:14 05:50:02 19° 92° (E) 05:52:49 145.795 - 145.815
DOVE 4 24 Nov 05:51:33 05:56:48 88° 289° (WNW) 06:01:47 437.250
AO-85 24 Nov 05:52:32 05:56:13 34° 325° (NW) 06:00:08 145.980
LilacSat-2 24 Nov 05:52:47 05:55:55 23° 93° (E) 05:59:02 437.200
HO-68 24 Nov 05:53:37 05:56:59 14° 81° (E) 06:00:21 435.675
XW-2F 24 Nov 05:54:57 05:57:55 21° 92° (E) 06:00:52 145.980 - 146.000
YUBILEINY 24 Nov 06:04:59 06:13:46 89° 111° (ESE) 06:22:41 435.215
M-CUBED/EXP-1 PRIME 24 Nov 06:08:24 06:08:52 10° 317° (NW) 06:09:20 437.505
KAITUO 1B 24 Nov 06:17:18 06:20:37 28° 95° (E) 06:23:56 145.475/437.950
KKS-1 24 Nov 06:23:35 06:25:34 13° 273° (W) 06:27:31 437.445
ITAMSAT 1 24 Nov 06:28:34 06:31:45 17° 308° (NW) 06:34:56 435.822/435.867
BEESAT 2 24 Nov 06:33:51 06:36:21 16° 343° (NNW) 06:38:52 435.950
STARS 24 Nov 06:37:32 06:40:43 19° 269° (W) 06:43:56 437.465
XW-2D 24 Nov 06:39:52 06:43:41 69° 103° (ESE) 06:47:29 145.860 - 145.880
CUTE-I 24 Nov 06:41:12 06:46:27 51° 100° (E) 06:51:40 437.470
PCSat 24 Nov 06:41:50 06:46:19 25° 29° (NNE) 06:50:47 145.827
CUBEBUG 2 24 Nov 06:50:10 06:52:34 15° 88° (E) 06:54:58 437.445
BEESAT 3 24 Nov 06:54:30 06:56:10 12° 0° (N) 06:57:51 437.485
XW-2B 24 Nov 06:54:49 06:58:39 86° 285° (WNW) 07:02:28 145.730 - 145.750
NUDT-PHONESAT 24 Nov 06:56:19 07:00:02 71° 103° (ESE) 07:03:45 437.300
CUTE 1.7 + AOD 2 24 Nov 06:57:27 07:01:11 28° 94° (E) 07:04:55 437.475
AO-7 24 Nov 06:58:32 07:04:53 25° 319° (NW) 07:11:14 .
FO-29 24 Nov 07:15:36 07:22:19 50° 63° (ENE) 07:29:42 435.910
STRAND 1 24 Nov 07:17:08 07:22:14 62° 258° (WSW) 07:27:22 437.568
AAUSAT CUBESAT 2 24 Nov 07:20:04 07:22:32 15° 88° (E) 07:24:59 437.432
XW-2C 24 Nov 07:20:46 07:24:26 45° 290° (WNW) 07:28:05 145.795 - 145.815
SEEDS 24 Nov 07:21:49 07:25:39 31° 95° (E) 07:29:27 437.485
SO-50 24 Nov 07:23:20 07:25:45 14° 249° (WSW) 07:28:09 436.795
ZACube-1 24 Nov 07:24:55 07:25:57 11° 86° (E) 07:26:58 437.345
LilacSat-2 24 Nov 07:26:44 07:30:18 37° 292° (WNW) 07:33:52 437.200
XW-2F 24 Nov 07:28:36 07:32:11 40° 291° (WNW) 07:35:45 145.980 - 146.000
DOVE 4 24 Nov 07:30:18 07:33:43 18° 306° (NW) 07:37:03 437.250
XW-2A 24 Nov 07:31:17 07:33:35 17° 92° (E) 07:35:52 145.665 - 145.685
AO-85 24 Nov 07:35:16 07:37:50 16° 350° (N) 07:40:31 145.980
HO-68 24 Nov 07:39:05 07:46:14 63° 103° (ESE) 07:53:20 435.675
UWE-3 24 Nov 07:39:41 07:43:13 26° 94° (E) 07:46:43 435.000/436.395/437.385
KAITUO 1B 24 Nov 07:51:16 07:54:35 29° 294° (WNW) 07:57:53 145.475/437.950
YUBILEINY 24 Nov 08:04:41 08:11:54 28° 304° (NW) 08:19:13 435.215
AO-73 24 Nov 08:11:59 08:15:33 27° 94° (E) 08:19:08 145.935
BEESAT 2 24 Nov 08:13:40 08:15:39 13° 7° (N) 08:17:37 435.950
XW-2D 24 Nov 08:15:13 08:17:23 15° 301° (WNW) 08:19:33 145.860 - 145.880
CUTE-I 24 Nov 08:21:38 08:26:18 31° 300° (WNW) 08:30:56 437.470
Oscar 11 24 Nov 08:24:49 08:28:31 27° 94° (E) 08:32:12 .
PCSat 24 Nov 08:25:04 08:30:32 80° 51° (NE) 08:35:58 145.827
CUBEBUG 2 24 Nov 08:25:32 08:29:43 68° 286° (WNW) 08:33:48 437.445
XW-2B 24 Nov 08:30:55 08:32:12 11° 303° (WNW) 08:33:28 145.730 - 145.750
NUDT-PHONESAT 24 Nov 08:31:28 08:33:24 14° 301° (WNW) 08:35:19 437.300
BEESAT 3 24 Nov 08:32:15 08:35:11 19° 24° (NNE) 08:38:04 437.485
CUTE 1.7 + AOD 2 24 Nov 08:33:09 08:37:05 37° 293° (WNW) 08:41:01 437.475
UNISAT 6 24 Nov 08:36:27 08:40:37 38° 67° (ENE) 08:44:43 437.425
PRISM 24 Nov 08:39:13 08:41:57 17° 58° (ENE) 08:44:43 437.425
TIGRISAT 24 Nov 08:39:55 08:44:05 38° 67° (ENE) 08:48:10 435.000
AO-7 24 Nov 08:52:29 08:54:47 11° 345° (NNW) 08:57:04 .
AAUSAT CUBESAT 2 24 Nov 08:54:16 08:58:28 69° 286° (WNW) 09:02:37 437.432
DELFI C3 24 Nov 08:56:48 08:58:40 13° 87° (E) 09:00:33 145.870
SEEDS 24 Nov 08:57:30 09:01:20 33° 294° (WNW) 09:05:09 437.485
ZACube-1 24 Nov 08:58:44 09:02:55 87° 109° (ESE) 09:07:05 437.345
FO-29 24 Nov 09:00:48 09:07:26 46° 265° (W) 09:14:46 435.910
XW-2A 24 Nov 09:03:17 09:06:27 39° 290° (WNW) 09:09:38 145.665 - 145.685
UWE-3 24 Nov 09:15:57 09:19:47 37° 293° (WNW) 09:23:36 435.000/436.395/437.385
AO-85 24 Nov 09:17:02 09:19:53 17° 15° (NNE) 09:22:53 145.980
Max Valier Satellite 24 Nov 09:22:26 09:24:42 15° 90° (E) 09:26:57 145.860
HO-68 24 Nov 09:27:14 09:33:40 37° 304° (NW) 09:40:04 435.675
POLYITAN 1 24 Nov 09:40:46 09:41:37 11° 52° (NE) 09:42:28 437.675
AO-73 24 Nov 09:48:04 09:51:52 36° 293° (WNW) 09:55:41 145.935
BEESAT 2 24 Nov 09:51:14 09:54:41 25° 31° (NNE) 09:58:05 435.950
Oscar 11 24 Nov 10:00:43 10:04:47 40° 292° (WNW) 10:08:50 .
QB50P2 24 Nov 10:02:05 10:04:53 17° 58° (ENE) 10:07:41 145.880/145.840
CUBEBUG 2 24 Nov 10:04:44 10:05:31 10° 307° (NW) 10:06:18 437.445
PCSat 24 Nov 10:09:20 10:13:21 21° 252° (WSW) 10:17:21 145.827
BEESAT 3 24 Nov 10:09:24 10:13:23 69° 45° (NE) 10:17:18 437.485
PRISM 24 Nov 10:12:39 10:16:46 68° 257° (WSW) 10:20:57 437.425
UNISAT 6 24 Nov 10:13:26 10:17:24 29° 265° (W) 10:21:18 437.425
TIGRISAT 24 Nov 10:16:53 10:20:50 30° 265° (W) 10:24:45 435.000
DELFI C3 24 Nov 10:29:55 10:33:56 75° 287° (WNW) 10:37:54 145.870
AAUSAT CUBESAT 2 24 Nov 10:31:58 10:33:07 11° 306° (NW) 10:34:16 437.432
AIST 2D 24 Nov 10:34:43 10:38:09 66° 74° (ENE) 10:41:38 435.315
ZACube-1 24 Nov 10:36:29 10:38:36 14° 303° (WNW) 10:40:43 437.345
AO-7 24 Nov 10:41:51 10:43:55 11° 13° (NNE) 10:45:59 .
DUCHIFAT 1 24 Nov 10:45:19 10:48:58 29° 64° (ENE) 10:52:37 145.980
EO-88 24 Nov 10:45:52 10:49:32 87° 103° (ESE) 10:53:12 145.990 - 145.960
Max Valier Satellite 24 Nov 10:55:14 10:58:50 52° 288° (WNW) 11:02:25 145.860
EO-79 24 Nov 10:56:18 11:00:21 45° 69° (ENE) 11:04:24 145.935-145.965
Oscar 19 24 Nov 10:57:02 10:58:54 12° 48° (NE) 11:00:46 437.125/150
AO-85 24 Nov 10:57:11 11:01:25 39° 37° (NE) 11:05:58 145.980
NANOSAT C BR1 24 Nov 10:57:24 11:01:23 42° 68° (ENE) 11:05:21 145.865
LO-87 24 Nov 11:00:24 11:03:00 19° 92° (E) 11:05:35 145.935 - 145.965
AO-91 24 Nov 11:03:28 11:05:44 13° 51° (NE) 11:07:59 145.960
POLYITAN 1 24 Nov 11:12:23 11:16:34 65° 73° (ENE) 11:20:46 437.675
HO-68 24 Nov 11:17:01 11:19:26 12° 328° (NNW) 11:21:51 435.675
BUGSAT 1 24 Nov 11:25:23 11:28:36 22° 61° (ENE) 11:31:48 437.445
BEESAT 2 24 Nov 11:28:44 11:32:47 70° 231° (SW) 11:36:46 435.950
QB50P2 24 Nov 11:35:59 11:40:13 69° 257° (WSW) 11:44:27 145.880/145.840
ESTCUBE 1 24 Nov 11:42:09 11:46:28 41° 98° (E) 11:50:46 437.505/2401.250
Gurwin Techsat 1B 24 Nov 11:45:55 11:49:50 21° 55° (NE) 11:53:45 435.225
BEESAT 3 24 Nov 11:47:48 11:50:29 18° 246° (WSW) 11:53:07 437.485
DELFI C3 24 Nov 12:06:49 12:07:57 11° 305° (NW) 12:09:05 145.870
AIST 2D 24 Nov 12:10:36 12:11:46 11° 272° (W) 12:12:56 435.315
M-CUBED/EXP-1 PRIME 24 Nov 12:15:46 12:17:26 12° 46° (NE) 12:19:09 437.505
SPROUT 24 Nov 12:20:11 12:23:50 27° 94° (E) 12:27:25 437.525
DUCHIFAT 1 24 Nov 12:20:41 12:24:34 35° 263° (W) 12:28:26 145.980
EO-88 24 Nov 12:21:21 12:22:35 11° 303° (WNW) 12:23:50 145.990 - 145.960
AO-7 24 Nov 12:27:34 12:33:45 24° 40° (NE) 12:39:58 .
Oscar 19 24 Nov 12:32:12 12:37:11 56° 68° (ENE) 12:42:12 437.125/150
EO-79 24 Nov 12:32:57 12:36:19 23° 267° (W) 12:39:41 145.935-145.965
LO-87 24 Nov 12:33:15 12:36:35 38° 291° (WNW) 12:39:53 145.935 - 145.965
NANOSAT C BR1 24 Nov 12:33:46 12:37:14 24° 267° (W) 12:40:42 145.865
AO-91 24 Nov 12:35:54 12:41:11 56° 70° (ENE) 12:46:21 145.960
AO-85 24 Nov 12:37:31 12:41:57 47° 236° (SW) 12:46:42 145.980
POLYITAN 1 24 Nov 12:50:06 12:52:47 16° 271° (W) 12:55:29 437.675
ITAMSAT 1 24 Nov 12:57:34 12:58:44 11° 45° (NE) 12:59:54 435.822/435.867
BUGSAT 1 24 Nov 12:59:38 13:03:41 49° 260° (W) 13:07:43 437.445
BEESAT 2 24 Nov 13:09:13 13:09:43 10° 251° (WSW) 13:10:13 435.950
O/OREOS (USA 219) 24 Nov 13:18:33 13:23:02 54° 112° (ESE) 13:27:33 437.305
ESTCUBE 1 24 Nov 13:19:13 13:23:08 29° 297° (WNW) 13:27:03 437.505/2401.250
50 SAT 24 Nov 13:22:20 13:24:24 16° 92° (E) 13:26:26 437.505
Gurwin Techsat 1B 24 Nov 13:23:54 13:29:13 80° 255° (WSW) 13:34:35 435.225
VELOX 1 24 Nov 13:24:13 13:28:42 70° 103° (ESE) 13:33:07 145.980
M-CUBED/EXP-1 PRIME 24 Nov 13:47:18 13:51:02 73° 68° (ENE) 13:55:07 437.505
SPROUT 24 Nov 13:55:51 13:59:49 38° 293° (WNW) 14:03:45 437.525
DX 1 24 Nov 13:59:02 14:03:11 40° 98° (E) 14:07:19 434.975-435.025
YUBILEINY 24 Nov 14:12:27 14:18:18 19° 46° (NE) 14:24:07 435.215
Oscar 19 24 Nov 14:12:38 14:16:50 25° 268° (W) 14:21:04 437.125/150
AO-91 24 Nov 14:13:16 14:17:52 28° 268° (W) 14:22:24 145.960
AO-7 24 Nov 14:17:02 14:25:14 70° 63° (ENE) 14:33:30 .
ITAMSAT 1 24 Nov 14:32:01 14:37:01 47° 66° (ENE) 14:42:02 435.822/435.867
UKube-1 24 Nov 14:33:46 14:38:04 56° 102° (ESE) 14:42:18 .
NO-84 24 Nov 14:48:27 14:51:44 31° 139° (SE) 14:55:15 435.350 FM
50 SAT 24 Nov 14:53:36 14:56:39 38° 290° (WNW) 14:59:40 437.505
O/OREOS (USA 219) 24 Nov 14:58:49 15:02:45 27° 313° (NW) 15:06:41 437.305
VELOX 1 24 Nov 15:01:34 15:04:40 19° 302° (WNW) 15:07:44 145.980
MOZHAYETS 4 24 Nov 15:03:06 15:06:59 26° 93° (E) 15:10:50
Gurwin Techsat 1B 24 Nov 15:07:23 15:10:03 14° 275° (W) 15:12:44 435.225
BEESAT 24 Nov 15:11:19 15:15:11 24° 93° (E) 15:19:03 436.000
ITUPSAT 1 24 Nov 15:23:12 15:27:23 30° 95° (E) 15:31:32 437.325
M-CUBED/EXP-1 PRIME 24 Nov 15:24:11 15:26:02 13° 267° (W) 15:27:58 437.505
DOVE 4 24 Nov 15:24:41 15:29:07 29° 61° (ENE) 15:33:37 437.250
CUBESAT XI-V 24 Nov 15:25:05 15:27:07 13° 85° (E) 15:29:09 437.345
DX 1 24 Nov 15:35:28 15:39:14 28° 297° (WNW) 15:43:00 434.975-435.025
YUBILEINY 24 Nov 16:08:33 16:17:21 62° 73° (ENE) 16:26:04 435.215
XW-2B 24 Nov 16:09:12 16:10:46 12° 57° (ENE) 16:12:21 145.730 - 145.750
UKube-1 24 Nov 16:10:27 16:13:44 21° 301° (WNW) 16:17:01 .
AO-7 24 Nov 16:11:16 16:18:37 35° 265° (W) 16:26:04 .
ITAMSAT 1 24 Nov 16:12:04 16:16:40 31° 265° (W) 16:21:19 435.822/435.867
NO-84 24 Nov 16:24:59 16:28:49 76° 340° (NNW) 16:32:56 435.350 FM
HO-68 24 Nov 16:27:55 16:33:14 23° 46° (NE) 16:38:33 435.675
CUTE-I 24 Nov 16:29:44 16:34:08 27° 58° (ENE) 16:38:34 437.470
KKS-1 24 Nov 16:31:10 16:32:59 12° 86° (E) 16:34:47 437.445
XW-2C 24 Nov 16:33:33 16:36:22 21° 63° (ENE) 16:39:12 145.795 - 145.815
LilacSat-2 24 Nov 16:39:39 16:42:45 25° 65° (ENE) 16:45:54 437.200
MOZHAYETS 4 24 Nov 16:39:57 16:44:19 44° 292° (WNW) 16:48:39
XW-2F 24 Nov 16:40:44 16:43:40 22° 64° (ENE) 16:46:38 145.980 - 146.000
BEESAT 24 Nov 16:48:37 16:53:15 52° 292° (WNW) 16:57:51 436.000
CUBESAT XI-V 24 Nov 17:00:30 17:05:14 84° 104° (ESE) 17:09:57 437.345
ITUPSAT 1 24 Nov 17:00:51 17:05:21 42° 294° (WNW) 17:09:49 437.325
DOVE 4 24 Nov 17:01:26 17:06:29 54° 261° (W) 17:11:43 437.250
KAITUO 1B 24 Nov 17:02:04 17:05:16 29° 66° (ENE) 17:08:31 145.475/437.950
XW-2D 24 Nov 17:25:41 17:29:24 70° 74° (ENE) 17:33:10 145.860 - 145.880
NUDT-PHONESAT 24 Nov 17:39:52 17:43:30 69° 73° (ENE) 17:47:10 437.300
XW-2B 24 Nov 17:40:38 17:44:22 84° 257° (WSW) 17:48:10 145.730 - 145.750
CUBEBUG 2 24 Nov 17:52:34 17:56:17 26° 63° (ENE) 17:59:54 437.445
CUTE 1.7 + AOD 2 24 Nov 17:54:51 17:58:45 38° 68° (ENE) 18:02:42 437.475
RS-15 24 Nov 18:00:51 18:12:04 44° 110° (ESE) 18:23:09 29.354- 29.394
NO-84 24 Nov 18:02:36 18:06:31 50° 1° (N) 18:10:37 435.350 FM
KKS-1 24 Nov 18:05:44 18:10:14 87° 105° (ESE) 18:14:42 437.445
YUBILEINY 24 Nov 18:05:52 18:13:47 39° 276° (W) 18:21:41 435.215
XW-2C 24 Nov 18:06:44 18:10:18 42° 261° (W) 18:13:55 145.795 - 145.815
XW-2A 24 Nov 18:07:47 18:09:42 15° 61° (ENE) 18:11:37 145.665 - 145.685
CUTE-I 24 Nov 18:08:30 18:13:49 62° 258° (WSW) 18:19:11 437.470
HO-68 24 Nov 18:12:46 18:19:58 77° 68° (ENE) 18:27:12 435.675
LilacSat-2 24 Nov 18:13:28 18:16:55 34° 263° (W) 18:20:24 437.200
XW-2F 24 Nov 18:14:07 18:17:36 37° 263° (W) 18:21:08 145.980 - 146.000
AAUSAT CUBESAT 2 24 Nov 18:14:54 18:17:58 20° 61° (ENE) 18:21:03 437.432
SEEDS 24 Nov 18:18:10 18:22:07 41° 68° (ENE) 18:26:05 437.485
STARS 24 Nov 18:19:41 18:24:00 53° 101° (E) 18:28:17 437.465
ZACube-1 24 Nov 18:24:46 18:27:40 18° 60° (ENE) 18:30:32 437.345
BEESAT 24 Nov 18:29:16 18:30:00 10° 312° (NW) 18:30:44 436.000
KAITUO 1B 24 Nov 18:36:01 18:39:14 28° 265° (W) 18:42:28 145.475/437.950
CUBESAT XI-V 24 Nov 18:39:00 18:42:01 17° 304° (WNW) 18:45:01 437.345
UWE-3 24 Nov 18:41:16 18:45:22 41° 69° (ENE) 18:49:23 435.000/436.395/437.385
